Location: St. Louis
(38.6270°N, 90.1994°W)
Time: 10:27:06
(UTC-06:00)

Altair - Pass Details

Date: 04 December 2021
Orbit: 1501 x 1683 km, 47.2° (Epoch: 25 January)

Event Time Altitude Azimuth Distance (km) Brightness Sun altitude
Rises 15:08:21 0° 233° (SW) 4,811 12.0 13.5°
Reaches altitude 10° 15:11:30 10° 233° (SW) 3,802 12.4 13.1°
Maximum altitude 15:21:08 84° 147° (SSE) 1,562 7.8 11.7°
Drops below altitude 10° 15:30:27 10° 60° (ENE) 3,682 8.9 10.3°
Sets 15:33:27 0° 60° (ENE) 4,653 9.4 9.9°
